Date String (YYYY-MM-DD hh:mm:ss) UTC,Instrument flags,absolute air pressure of the measurement (hPa),sample flow rate (lpm),inlet stack bypass flow (lpm),air temperature of the measurement (°C),ambient temperature measured by the external sensor (°C),aerosol sample conditioner tube jacket temperature (°C),OPC LED temperature (°C),internal box temperature (°C),relative humidity of the measurement (%),span deviation,mass concentration of particles derived from Lorenz-Mie calculation of OPC scattering (μg/m³),mass concentration of particles derived from Lorenz-Mie calculation of OPC scattering (μg/m³),mass concentration of particles derived from Lorenz-Mie calculation of OPC scattering (μg/m³)
DateTimeUTC,F1_M11,P_M11,Q1_M11,Q2_M11,T1_M11,T2_M11,T3_M11,T4_M11,T5_M11,U1_M11,ZSPAN_M11,X0_M11,X2_M11,X1_M11
2023-09-09 07:00:00,SystemResetWarning,0835.1,5.01,000.00,028.2,026.6,000.0,036.6,029.7,10.8,0000.0,0004.72,0001.13,0000.66
2023-09-09 07:01:00,SystemResetWarning,0835.1,4.99,000.00,028.2,026.8,000.0,036.6,029.7,10.8,0000.0,0004.83,0001.16,0000.66
2023-09-09 07:02:00,SystemResetWarning,0835.1,4.99,000.00,028.2,026.9,000.0,036.6,029.8,10.8,0000.0,0004.73,0001.11,0000.66
2023-09-09 07:03:00,SystemResetWarning,0835.1,5.00,000.00,028.2,027.0,000.0,036.6,029.8,10.6,0000.0,0003.98,0001.10,0000.66
2023-09-09 07:04:00,SystemResetWarning,0835.2,5.00,000.00,028.3,027.1,000.0,036.6,029.8,10.7,0000.0,0003.63,0001.07,0000.66
2023-09-09 07:05:00,SystemResetWarning,0835.2,5.00,000.00,028.3,027.1,000.0,036.7,029.9,10.6,0000.0,0003.44,0001.05,0000.67
2023-09-09 07:06:00,SystemResetWarning,0835.1,5.00,000.00,028.3,027.2,000.0,036.7,029.9,10.6,0000.0,0003.45,0001.05,0000.67
2023-09-09 07:07:00,SystemResetWarning,0835.1,5.00,000.00,028.4,027.3,000.0,036.7,030.0,10.5,0000.0,0003.56,0001.07,0000.68
2023-09-09 07:08:00,SystemResetWarning,0835.1,5.00,000.00,028.4,027.3,000.0,036.7,030.0,10.5,0000.0,0004.34,0001.13,0000.70
2023-09-09 07:09:00,SystemResetWarning,0835.2,5.00,000.00,028.4,027.4,000.0,036.7,030.0,10.6,0000.0,0005.42,0001.15,0000.71
2023-09-09 07:10:00,SystemResetWarning,0835.2,5.00,000.00,028.4,027.4,000.0,036.8,030.1,10.5,0000.0,0005.12,0001.16,0000.72
2023-09-09 07:11:00,SystemResetWarning,0835.1,4.98,000.00,028.5,026.2,000.0,036.7,029.9,10.5,0000.0,0005.01,0001.13,0000.72
2023-09-09 07:12:00,SystemResetWarning,0835.0,5.01,000.00,028.4,024.8,000.0,036.6,029.7,10.4,0000.0,0004.87,0001.08,0000.73
2023-09-09 07:13:00,SystemResetWarning,0835.0,5.01,000.00,028.3,024.7,000.0,036.6,029.7,10.4,0000.0,0005.51,0001.10,0000.73
2023-09-09 07:14:00,SystemResetWarning,0835.1,5.01,000.00,028.2,024.9,000.0,036.6,029.5,10.6,0000.0,0006.51,0001.11,0000.75
2023-09-09 07:15:00,SystemResetWarning,0835.0,4.98,000.00,028.2,025.3,000.0,036.6,029.5,10.7,0000.0,0006.47,0001.09,0000.76
2023-09-09 07:16:00,SystemResetWarning,0835.0,4.99,000.00,028.2,025.6,000.0,036.6,029.5,10.7,0000.0,0006.57,0001.13,0000.77
2023-09-09 07:17:00,SystemResetWarning,0835.1,5.01,000.00,028.1,025.9,000.0,036.6,029.5,10.6,0000.0,0006.55,0001.15,0000.80
2023-09-09 07:18:00,SystemResetWarning,0835.1,5.01,000.00,028.1,026.2,000.0,036.6,029.6,10.7,0000.0,0007.76,0001.15,0000.81
2023-09-09 07:19:00,SystemResetWarning,0835.1,4.99,000.00,028.2,026.4,000.0,036.6,029.7,10.7,0000.0,0007.98,0001.11,0000.82
2023-09-09 07:20:00,SystemResetWarning,0835.1,5.00,000.00,028.2,026.6,000.0,036.6,029.7,10.6,0000.0,0008.62,0001.09,0000.81
2023-09-09 07:21:00,SystemResetWarning,0835.1,5.00,000.00,028.2,026.7,000.0,036.6,029.7,10.6,0000.0,0008.03,0001.11,0000.82
2023-09-09 07:22:00,SystemResetWarning,0835.1,5.00,000.00,028.2,026.8,000.0,036.6,029.8,10.6,0000.0,0007.86,0001.13,0000.83
2023-09-09 07:23:00,SystemResetWarning,0835.1,4.99,000.00,028.2,026.9,000.0,036.6,029.8,10.6,0000.0,0008.53,0001.14,0000.83
2023-09-09 07:24:00,SystemResetWarning,0835.1,4.99,000.00,028.3,027.0,000.0,036.6,029.8,10.6,0000.0,0008.52,0001.15,0000.83
2023-09-09 07:25:00,SystemResetWarning,0835.2,5.01,000.00,028.3,027.1,000.0,036.7,029.9,10.5,0000.0,0007.89,0001.18,0000.84
2023-09-09 07:26:00,SystemResetWarning,0835.1,5.01,000.00,028.3,027.2,000.0,036.7,029.9,10.6,0000.0,0008.12,0001.27,0000.85
2023-09-09 07:27:00,SystemResetWarning,0835.1,4.99,000.00,028.4,027.3,000.0,036.7,030.0,10.5,0000.0,0008.20,0001.30,0000.86
2023-09-09 07:28:00,SystemResetWarning,0835.0,4.99,000.00,028.4,027.3,000.0,036.7,030.0,10.4,0000.0,0008.28,0001.31,0000.86
2023-09-09 07:29:00,SystemResetWarning,0835.0,5.01,000.00,028.4,027.4,000.0,036.8,030.0,10.4,0000.0,0007.61,0001.33,0000.86
2023-09-09 07:30:00,SystemResetWarning,0835.0,5.01,000.00,028.4,027.4,000.0,036.8,030.1,10.4,0000.0,0007.10,0001.36,0000.86
2023-09-09 07:31:00,SystemResetWarning,0835.1,5.01,000.00,028.5,027.4,000.0,036.8,030.1,10.4,0000.0,0004.96,0001.40,0000.87
2023-09-09 07:32:00,SystemResetWarning,0835.0,4.98,000.00,028.5,025.9,000.0,036.7,029.9,10.4,0000.0,0005.35,0001.42,0000.88
2023-09-09 07:33:00,SystemResetWarning,0835.0,5.01,000.00,028.4,024.7,000.0,036.6,029.7,10.4,0000.0,0005.83,0001.45,0000.89
2023-09-09 07:34:00,SystemResetWarning,0835.0,5.01,000.00,028.3,024.7,000.0,036.6,029.6,10.5,0000.0,0005.06,0001.50,0000.93
2023-09-09 07:35:00,SystemResetWarning,0835.0,4.99,000.00,028.2,024.9,000.0,036.6,029.5,10.5,0000.0,0004.76,0001.55,0000.95
2023-09-09 07:36:00,SystemResetWarning,0835.0,5.00,000.00,028.2,025.3,000.0,036.6,029.5,10.6,0000.0,0004.94,0001.60,0000.96
2023-09-09 07:37:00,SystemResetWarning,0835.0,5.00,000.00,028.2,025.6,000.0,036.6,029.5,10.6,0000.0,0004.66,0001.55,0000.95
2023-09-09 07:38:00,SystemResetWarning,0835.0,5.01,000.00,028.2,025.9,000.0,036.6,029.6,10.6,0000.0,0004.50,0001.52,0000.95
2023-09-09 07:39:00,SystemResetWarning,0835.0,5.01,000.00,028.2,026.2,000.0,036.6,029.6,10.6,0000.0,0004.29,0001.48,0000.94
2023-09-09 07:40:00,SystemResetWarning,0835.0,4.99,000.00,028.2,026.4,000.0,036.6,029.7,10.5,0000.0,0004.16,0001.44,0000.93
2023-09-09 07:41:00,SystemResetWarning,0835.0,5.00,000.00,028.2,026.6,000.0,036.6,029.7,10.5,0000.0,0003.70,0001.39,0000.91
2023-09-09 07:42:00,SystemResetWarning,0835.0,4.99,000.00,028.2,026.7,000.0,036.6,029.8,10.6,0000.0,0003.57,0001.37,0000.90
2023-09-09 07:43:00,SystemResetWarning,0835.1,5.00,000.00,028.2,026.9,000.0,036.6,029.8,10.5,0000.0,0003.16,0001.35,0000.89
2023-09-09 07:44:00,SystemResetWarning,0835.0,5.00,000.00,028.3,027.0,000.0,036.7,029.8,10.4,0000.0,0002.72,0001.30,0000.87
2023-09-09 07:45:00,SystemResetWarning,0835.0,5.01,000.00,028.3,027.1,000.0,036.7,029.9,10.4,0000.0,0002.35,0001.23,0000.84
2023-09-09 07:46:00,SystemResetWarning,0835.0,5.00,000.00,028.3,027.1,000.0,036.7,029.9,10.4,0000.0,0004.09,0001.20,0000.82
2023-09-09 07:47:00,SystemResetWarning,0835.0,5.00,000.00,028.3,027.2,000.0,036.7,029.9,10.3,0000.0,0004.60,0001.22,0000.80
2023-09-09 07:48:00,SystemResetWarning,0835.0,5.00,000.00,028.4,027.3,000.0,036.7,030.0,10.3,0000.0,0005.21,0001.23,0000.78
2023-09-09 07:49:00,SystemResetWarning,0835.0,5.00,000.00,028.4,027.3,000.0,036.7,030.0,10.3,0000.0,0005.53,0001.22,0000.78
2023-09-09 07:50:00,SystemResetWarning,0835.0,5.00,000.00,028.4,027.4,000.0,036.8,030.0,10.3,0000.0,0006.42,0001.30,0000.79
2023-09-09 07:51:00,SystemResetWarning,0835.0,5.00,000.00,028.5,027.4,000.0,036.8,030.1,10.2,0000.0,0006.57,0001.35,0000.79
2023-09-09 07:52:00,SystemResetWarning,0835.0,5.00,000.00,028.5,027.5,000.0,036.8,030.1,10.2,0000.0,0006.99,0001.39,0000.79
2023-09-09 07:53:00,SystemResetWarning,0835.0,5.00,000.00,028.5,026.6,000.0,036.8,030.0,10.2,0000.0,0006.98,0001.37,0000.78
2023-09-09 07:54:00,SystemResetWarning,0834.9,5.00,000.00,028.4,025.0,000.0,036.7,029.7,10.2,0000.0,0007.19,0001.37,0000.77
2023-09-09 07:55:00,SystemResetWarning,0834.9,5.01,000.00,028.4,024.7,000.0,036.6,029.7,10.1,0000.0,0007.31,0001.38,0000.77
2023-09-09 07:56:00,SystemResetWarning,0834.9,5.00,000.00,028.3,024.9,000.0,036.6,029.5,10.2,0000.0,0007.35,0001.43,0000.78
2023-09-09 07:57:00,SystemResetWarning,0834.9,5.00,000.00,028.2,025.2,000.0,036.6,029.4,10.3,0000.0,0005.52,0001.43,0000.77
2023-09-09 07:58:00,SystemResetWarning,0834.9,5.00,000.00,028.2,025.5,000.0,036.6,029.5,10.4,0000.0,0004.93,0001.39,0000.79
2023-09-09 07:59:00,SystemResetWarning,0834.9,5.00,000.00,028.2,025.8,000.0,036.6,029.6,10.3,0000.0,0004.18,0001.34,0000.79
